User: anonymous   Login
Location: Caltech
(34.1382°N, 118.1253°W)
Time: 00:46:41
(UTC-08:00)
Language:

OAO 1 Rocket - Orbit

View from above orbital plane
View from above orbital plane
View from above satellite
View from above satellite

Ground track
Ground track

The orbit data is extracted from the following two-line orbital elements,

1 02144U 66031B   14325.43797158  .00000554  00000-0  17153-3 0  7718
2 02144 035.0437 358.8943 0008921 250.7403 109.2322 14.42238695552483
Epoch (UTC): 21 November 2014 10:30:40
Eccentricity: 0.0008921
inclination: 35.0437°
perigee height: 745 km
apogee height: 757 km
right ascension of ascending node: 358.8943°
argument of perigee: 250.7403°
revolutions per day: 14.42238695
mean anomaly at epoch: 109.2322°
orbit number at epoch: 55248

The dashed part of the orbit path shows where the satellite is in the earth's shadow,  

DLR